Sabula, IA

4:39 PM CDT on August 26, 2016 (GMT -0500)
Tri-Township

Weather History for KSFY - April, 2014

Change the Weather History Date:

Wednesday, April 2, 2014

  Actual Average (KCWI) Record (KCWI)
Temperature  
Mean Temperature 42 °F -  
Max Temperature 53 °F 54 °F 83 °F (1981)
Min Temperature 30 °F 34 °F 17 °F (1993)
Degree Days  
Heating Degree Days 24    
Moisture  
Dew Point 29 °F    
Average Humidity 60    
Maximum Humidity 85    
Minimum Humidity 39    
Precipitation  
Precipitation 0.00 in - - ()
Sea Level Pressure  
Sea Level Pressure 30.08 in    
Wind  
Wind Speed 8 mph (NE)    
Max Wind Speed 18 mph    
Max Gust Speed 24 mph    
Visibility 10 miles    
Events Rain , Thunderstorm    
Averages and records for this station are not official NWS values.
T = Trace of Precipitation, MM = Missing Value Source: NWS Daily Summary

Daily Weather History Graph

Daily Weather History Graph

Search for Another Location

Airport or City:

Trip Planner

Search our weather history database for the weather conditions in past years. The results will help you decide how hot, cold, wet, or windy it might be!

Date:

Astronomy

Apr. 02, 2014 Rise Set
Actual Time 6:41 AM CDT 7:27 PM CDT
Civil Twilight 6:13 AM CDT 7:55 PM CDT
Nautical Twilight 5:39 AM CDT 8:29 PM CDT
Astronomical Twilight 5:05 AM CDT 9:03 PM CDT
Moon 8:23 AM CDT (4/2) 10:53 PM CDT (4/2)
Length of Visible Light 13h 42m
Length of Day
12h 45m
Waxing Crescent, 10% of the Moon is Illuminated
Apr 2
Waxing Crescent
Apr 7
First Quarter
Apr 15
Full
Apr 22
Last Quarter
Apr 29
New

Hourly Weather History & Observations

Time (CDT) Temp. Windchill Dew Point Humidity Pressure Visibility Wind Dir Wind Speed Gust Speed Precip Events Conditions
12:15 AM 41.5 °F 37.8 °F 30.2 °F 64% 30.09 in 10.0 mi NW 5.8 mph - N/A   Overcast
12:35 AM 41.2 °F 38.2 °F 30.2 °F 65% 30.10 in 10.0 mi NW 4.6 mph - N/A   Overcast
12:55 AM 40.5 °F 36.5 °F 30.2 °F 67% 30.10 in 10.0 mi North 5.8 mph - N/A   Overcast
1:15 AM 40.3 °F 36.3 °F 30.2 °F 67% 30.09 in 10.0 mi North 5.8 mph - N/A   Overcast
1:35 AM 39.7 °F 37.6 °F 30.6 °F 70% 30.09 in 10.0 mi North 3.5 mph - N/A   Overcast
1:55 AM 39.7 °F 37.6 °F 30.6 °F 70% 30.11 in 10.0 mi NNW 3.5 mph - N/A   Overcast
2:15 AM 39.2 °F - 30.6 °F 71% 30.11 in 10.0 mi Calm Calm - N/A   Overcast
2:35 AM 38.3 °F 33.9 °F 30.6 °F 74% 30.10 in 10.0 mi North 5.8 mph - N/A   Mostly Cloudy
2:55 AM 37.8 °F 32.5 °F 30.2 °F 74% 30.10 in 10.0 mi North 6.9 mph - N/A   Mostly Cloudy
3:15 AM 36.0 °F 30.3 °F 28.2 °F 73% 30.11 in 10.0 mi North 6.9 mph - N/A   Scattered Clouds
3:35 AM 33.8 °F 27.7 °F 27.5 °F 78% 30.10 in 10.0 mi NNE 6.9 mph - N/A   Clear
3:55 AM 33.3 °F 27.9 °F 27.1 °F 78% 30.10 in 10.0 mi North 5.8 mph - N/A   Clear
4:15 AM 32.4 °F 26.9 °F 27.1 °F 81% 30.11 in 10.0 mi North 5.8 mph - N/A   Clear
4:35 AM 32.0 °F 28.7 °F 26.6 °F 80% 30.11 in 10.0 mi North 3.5 mph - N/A   Clear
4:55 AM 32.0 °F 28.7 °F 26.4 °F 80% 30.11 in 10.0 mi North 3.5 mph - N/A   Clear
5:15 AM 31.6 °F 27.0 °F 26.4 °F 81% 30.11 in 10.0 mi North 4.6 mph - N/A   Clear
5:35 AM 31.6 °F - 26.6 °F 82% 30.11 in 10.0 mi Calm Calm - N/A   Clear
5:55 AM 31.6 °F 28.3 °F 26.6 °F 82% 30.13 in 10.0 mi North 3.5 mph - N/A   Clear
6:15 AM 30.6 °F 27.1 °F 26.4 °F 85% 30.13 in 10.0 mi North 3.5 mph - N/A   Clear
7:35 AM 31.6 °F 27.0 °F 27.3 °F 84% 30.16 in 10.0 mi North 4.6 mph - N/A   Clear
7:55 AM 32.2 °F 25.0 °F 27.7 °F 83% 30.16 in 10.0 mi North 8.1 mph - N/A   Clear
8:15 AM 34.2 °F 27.5 °F 27.7 °F 77% 30.17 in 10.0 mi NE 8.1 mph - N/A   Clear
8:35 AM 35.6 °F 28.6 °F 27.5 °F 72% 30.16 in 10.0 mi NNE 9.2 mph - N/A   Clear
8:55 AM 36.7 °F 28.9 °F 27.5 °F 69% 30.16 in 10.0 mi NNE 11.5 mph - N/A   Clear
9:15 AM 38.3 °F 30.5 °F 27.3 °F 65% 30.14 in 10.0 mi NNE 12.7 mph 17.3 mph N/A   Clear
9:35 AM 39.4 °F 31.4 °F 26.4 °F 60% 30.15 in 10.0 mi ENE 13.8 mph 20.7 mph N/A   Clear
9:55 AM 40.3 °F 32.2 °F 26.6 °F 58% 30.14 in 10.0 mi ENE 15.0 mph - N/A   Clear
10:15 AM 41.2 °F 34.1 °F 26.8 °F 57% 30.15 in 10.0 mi ENE 12.7 mph - N/A   Clear
10:35 AM 42.1 °F 34.9 °F 27.5 °F 56% 30.15 in 10.0 mi NE 13.8 mph - N/A   Clear
10:55 AM 42.4 °F 36.1 °F 27.5 °F 56% 30.15 in 10.0 mi NE 11.5 mph - N/A   Clear
11:35 AM 45.9 °F 40.8 °F 28.8 °F 51% 30.15 in 10.0 mi ENE 10.4 mph - N/A   Clear
11:55 AM 46.6 °F - 28.6 °F 50% 30.14 in 10.0 mi ENE 11.5 mph - N/A   Clear
12:15 PM 48.4 °F - 28.4 °F 46% 30.14 in 10.0 mi ENE 12.7 mph 17.3 mph N/A   Clear
12:35 PM 48.0 °F - 29.1 °F 48% 30.13 in 10.0 mi East 9.2 mph 16.1 mph N/A   Clear
12:55 PM 48.7 °F - 29.7 °F 48% 30.12 in 10.0 mi ENE 12.7 mph - N/A   Clear
1:15 PM 50.7 °F - 29.1 °F 43% 30.11 in 10.0 mi ENE 12.7 mph 18.4 mph N/A   Clear
1:35 PM 50.9 °F - 29.5 °F 44% 30.10 in 10.0 mi ENE 12.7 mph - N/A   Clear
1:55 PM 52.7 °F - 29.7 °F 41% 30.09 in 10.0 mi East 10.4 mph 18.4 mph N/A   Scattered Clouds
2:15 PM 52.0 °F - 28.9 °F 41% 30.08 in 10.0 mi ENE 12.7 mph - N/A   Overcast
2:35 PM 52.7 °F - 28.4 °F 39% 30.07 in 10.0 mi East 11.5 mph 17.3 mph N/A   Overcast
2:55 PM 53.6 °F - 29.3 °F 39% 30.06 in 10.0 mi East 12.7 mph - N/A   Overcast
3:15 PM 53.8 °F - 30.6 °F 41% 30.06 in 10.0 mi East 12.7 mph 17.3 mph N/A   Overcast
3:35 PM 53.6 °F - 30.6 °F 41% 30.04 in 10.0 mi East 12.7 mph - N/A   Overcast
3:55 PM 53.2 °F - 31.3 °F 43% 30.04 in 10.0 mi East 10.4 mph - N/A   Overcast
4:15 PM 53.1 °F - 30.9 °F 43% 30.04 in 10.0 mi East 12.7 mph - N/A   Overcast
4:35 PM 52.9 °F - 30.9 °F 43% 30.03 in 10.0 mi East 11.5 mph - N/A   Overcast
5:15 PM 52.7 °F - 31.6 °F 45% 30.02 in 10.0 mi East 12.7 mph 16.1 mph N/A   Overcast
5:35 PM 52.5 °F - 30.2 °F 42% 30.02 in 10.0 mi East 15.0 mph - N/A   Overcast
5:55 PM 52.2 °F - 31.1 °F 45% 30.02 in 10.0 mi East 9.2 mph - N/A   Overcast
6:15 PM 51.8 °F - 31.6 °F 46% 30.02 in 10.0 mi East 15.0 mph - N/A   Overcast
6:35 PM 50.9 °F - 31.8 °F 48% 30.03 in 10.0 mi East 12.7 mph 18.4 mph N/A   Overcast
6:55 PM 49.8 °F - 31.5 °F 49% 30.03 in 10.0 mi East 15.0 mph - N/A   Overcast
7:15 PM 47.7 °F - 32.0 °F 55% 30.03 in 10.0 mi East 17.3 mph - N/A   Drizzle
7:35 PM 45.5 °F 38.9 °F 32.4 °F 60% 30.03 in 10.0 mi East 15.0 mph 20.7 mph N/A Rain Rain
7:55 PM 45.0 °F 38.2 °F 32.0 °F 60% 30.03 in 10.0 mi East 15.0 mph - N/A   Overcast
8:15 PM 44.8 °F 37.7 °F 31.5 °F 60% 30.03 in 10.0 mi ENE 16.1 mph - N/A   Overcast
8:35 PM 44.6 °F 38.1 °F 30.6 °F 58% 30.04 in 10.0 mi ENE 13.8 mph - N/A   Overcast
8:55 PM 43.3 °F 35.5 °F 27.7 °F 54% 30.03 in 10.0 mi ENE 17.3 mph 24.2 mph N/A   Overcast
9:15 PM 42.8 °F 35.1 °F 26.1 °F 52% 30.04 in 10.0 mi ENE 16.1 mph 23.0 mph N/A   Overcast
9:35 PM 42.4 °F 35.3 °F 27.1 °F 55% 30.04 in 10.0 mi ENE 13.8 mph - N/A   Overcast
9:55 PM 41.9 °F 35.0 °F 29.3 °F 61% 30.04 in 10.0 mi ENE 12.7 mph - N/A   Overcast
10:15 PM 41.9 °F 34.3 °F 28.2 °F 58% 30.03 in 10.0 mi ENE 15.0 mph - N/A   Overcast
10:35 PM 41.0 °F 32.8 °F 28.4 °F 61% 30.02 in 10.0 mi NE 16.1 mph 21.9 mph N/A   Overcast
10:55 PM 40.3 °F 31.9 °F 28.2 °F 62% 30.01 in 10.0 mi NE 16.1 mph - N/A   Overcast
11:15 PM 40.1 °F 31.6 °F 27.1 °F 60% 30.00 in 10.0 mi NE 16.1 mph - N/A   Overcast
11:35 PM 39.7 °F 31.9 °F 26.8 °F 60% 30.01 in 10.0 mi ENE 13.8 mph 21.9 mph N/A Thunderstorm Overcast
11:55 PM 39.2 °F 29.8 °F 26.6 °F 61% 30.00 in 10.0 mi ENE 18.4 mph 23.0 mph N/A   Overcast